PERSEUS-M1

Last updated on Sun Dec 14 2025 00:03:49 GMT+0000 (Coordinated Universal Time)

1 40039U 14033AF 25347.26631037 .00003262 00000+0 30526-3 0 9997 2 40039 97.9461 283.6845 0011314 186.6534 173.4538 14.94761994622851
UTC large
Height (km)
Speed (km/s)
/
Latitude / Longitude
Inclination (degrees)
Orbital Period (minutes)
Azimuth
Elevation
Range (km)
Doppler Factor

Next 0 passes for location: London (51.5072 / 0.1276)

Sorry there are no passes over London.